User: anonymous   Login
Location: Ar Ranvel
(48.3000°N, 4.8833°W)
Time: 18:30:17
(UTC+00:00)
Language:

Cosmos 1461 - Orbit

View from above orbital plane
View from above orbital plane
View from above satellite
View from above satellite

Ground track
Ground track

The orbit data is extracted from the following two-line orbital elements,

1 14064U 83044A   21262.91039517  .00000363  00000-0  44976-4 0  9998
2 14064  65.0003 144.9105 0091447 158.5236 201.9757 14.95340433955770
Epoch (UTC): 19 September 2021 21:50:58
Eccentricity: 0.0091447
inclination: 65.0003°
perigee height: 517 km
apogee height: 645 km
right ascension of ascending node: 144.9105°
argument of perigee: 158.5236°
revolutions per day: 14.95340433
mean anomaly at epoch: 201.9757°
orbit number at epoch: 95577

The dashed part of the orbit path shows where the satellite is in the earth's shadow,  

DLR